Des Moines, IA

6:33 PM CST on January 20, 2017 (GMT -0600)
Des Moines International

Weather History for KDSM - November, 2014

Change the Weather History Date:

Tuesday, November 18, 2014

  Actual Average Record
Temperature  
Mean Temperature 18 °F 38 °F  
Max Temperature 27 °F 47 °F 76 °F (1999)
Min Temperature 8 °F 29 °F 4 °F (1891)
Degree Days  
Heating Degree Days 47 27  
Month to date heating degree days 527 406  
Since 1 July heating degree days 909 890  
Cooling Degree Days 0 0  
Month to date cooling degree days 0 0  
Year to date cooling degree days 1075 1066  
Moisture  
Dew Point 8 °F    
Average Humidity 64    
Maximum Humidity 73    
Minimum Humidity 54    
Precipitation  
Precipitation T in 0.06 in 0.72 in (1983)
Month to date precipitation 0.23 1.42  
Year to date precipitation 40.61 33.83  
Snow  
Snow T in 0.10 in 5.20 in (1957)
Month to date snowfall 2.8 0.8  
Since 1 July snowfall 2.8 1.2  
Since 1 September snowfall 2.8 1.2  
Snow Depth 1.00 in    
Sea Level Pressure  
Sea Level Pressure 30.13 in    
Wind  
Wind Speed 11 mph (WSW)    
Max Wind Speed 21 mph    
Max Gust Speed 25 mph    
Visibility 10 miles    
Events Snow    
T = Trace of Precipitation, MM = Missing Value Source: NWS Daily Summary

Daily Weather History Graph

Daily Weather History Graph

Search for Another Location

Airport or City:

Trip Planner

Search our weather history database for the weather conditions in past years. The results will help you decide how hot, cold, wet, or windy it might be!

Date:

Astronomy

Nov. 18, 2014 Rise Set
Actual Time 7:07 AM CST 4:52 PM CST
Civil Twilight 6:37 AM CST 5:22 PM CST
Nautical Twilight 6:03 AM CST 5:55 PM CST
Astronomical Twilight 5:30 AM CST 6:28 PM CST
Moon 3:02 AM CST (11/18) 2:50 PM CST (11/18)
Length of Visible Light 10h 45m
Length of Day
9h 45m
Waning Crescent, 15% of the Moon is Illuminated
Nov 18
Waning Crescent
Nov 22
New
Nov 29
First Quarter
Dec 6
Full
Dec 14
Last Quarter

Hourly Weather History & Observations

Time (CST) Temp. Windchill Dew Point Humidity Pressure Visibility Wind Dir Wind Speed Gust Speed Precip Events Conditions
12:54 AM 10.9 °F -4.1 °F 1.0 °F 64% 30.21 in 10.0 mi West 12.7 mph - N/A   Clear
1:54 AM 8.1 °F -3.2 °F -0.0 °F 70% 30.21 in 10.0 mi West 6.9 mph - N/A   Partly Cloudy
2:54 AM 10.0 °F -1.9 °F 1.9 °F 70% 30.21 in 9.0 mi West 8.1 mph - 0.00 in Snow Light Snow
3:54 AM 10.9 °F -5.9 °F 3.0 °F 70% 30.22 in 10.0 mi WNW 16.1 mph - 0.00 in   Partly Cloudy
4:54 AM 12.0 °F -3.4 °F 1.9 °F 64% 30.22 in 10.0 mi WNW 13.8 mph - N/A   Overcast
5:54 AM 12.0 °F -1.3 °F 3.0 °F 67% 30.23 in 10.0 mi WNW 10.4 mph - 0.00 in Snow Light Snow
6:54 AM 10.9 °F -2.6 °F 3.9 °F 73% 30.24 in 10.0 mi West 10.4 mph - 0.00 in   Mostly Cloudy
7:54 AM 10.0 °F -1.9 °F 3.0 °F 73% 30.25 in 10.0 mi West 8.1 mph - N/A   Mostly Cloudy
8:54 AM 12.9 °F -0.2 °F 5.0 °F 71% 30.25 in 10.0 mi West 10.4 mph - 0.00 in Snow Light Snow
9:54 AM 16.0 °F 6.3 °F 7.0 °F 68% 30.25 in 7.0 mi West 6.9 mph - 0.00 in Snow Light Snow
10:54 AM 21.0 °F 8.1 °F 9.0 °F 60% 30.23 in 10.0 mi West 13.8 mph - 0.00 in   Mostly Cloudy
11:54 AM 23.0 °F 9.2 °F 9.0 °F 55% 30.21 in 10.0 mi West 17.3 mph - N/A   Overcast
12:54 PM 23.0 °F 11.1 °F 9.0 °F 55% 30.19 in 9.0 mi West 12.7 mph 19.6 mph 0.00 in Snow Light Snow
1:54 PM 23.0 °F 10.1 °F 10.0 °F 58% 30.16 in 10.0 mi West 15.0 mph - 0.00 in   Mostly Cloudy
2:54 PM 24.1 °F 11.0 °F 10.0 °F 55% 30.13 in 10.0 mi West 16.1 mph - N/A   Partly Cloudy
3:54 PM 24.1 °F 13.1 °F 10.0 °F 55% 30.12 in 10.0 mi SW 11.5 mph - N/A   Scattered Clouds
4:54 PM 23.0 °F 14.7 °F 10.0 °F 58% 30.09 in 10.0 mi SSW 6.9 mph - N/A   Scattered Clouds
5:54 PM 21.0 °F 13.4 °F 10.0 °F 63% 30.08 in 10.0 mi South 5.8 mph - N/A   Scattered Clouds
6:54 PM 19.9 °F 10.1 °F 10.0 °F 65% 30.06 in 10.0 mi South 8.1 mph - N/A   Mostly Cloudy
7:54 PM 21.9 °F 11.7 °F 10.9 °F 63% 30.04 in 10.0 mi South 9.2 mph - N/A   Overcast
8:54 PM 21.9 °F 11.0 °F 12.0 °F 66% 30.00 in 10.0 mi South 10.4 mph - N/A   Overcast
9:54 PM 24.1 °F 13.1 °F 12.9 °F 62% 29.94 in 10.0 mi South 11.5 mph - N/A   Overcast
10:54 PM 25.0 °F 17.1 °F 14.0 °F 63% 29.89 in 10.0 mi South 6.9 mph - N/A   Overcast
11:54 PM 27.0 °F 18.7 °F 16.0 °F 63% 29.84 in 10.0 mi South 8.1 mph - N/A   Overcast